Location: Newark
(45.4422°N, 16.2769°E)
Time: 09:55:00
(UTC+00:00)

Vanguard 2 - Pass Details

Date: 14 December 2019
Orbit: 553 x 2938 km, 32.9° (Epoch: 19 January)

Event Time Altitude Azimuth Distance (km) Brightness Sun altitude
Rises 04:54:21 0° 275° (W) 6,675 - -15.4°
Reaches altitude 10° 04:59:23 10° 267° (W) 5,752 - -14.6°
Exits shadow 05:00:11 12° 266° (W) 5,613 11.3 -14.5°
Maximum altitude 05:13:51 33° 213° (SSW) 3,997 11.0 -12.2°
Drops below altitude 10° 05:26:13 10° 158° (SSE) 4,883 12.3 -10.2°
Sets 05:30:06 0° 148° (SSE) 5,578 12.9 -9.6°
